GW7216 Weather Reports


time (UTC)temp
F
wind
direction
speed
knots
gust
knots
rain 1hr
in
rain 24hr
in
rain mn
in
humidity
%
barometer
mb
20260503022046 60 200 2.6 6.1 0.00 0.00 0.00 54 1013.5
20260503022003 60 197 2.6 6.1 0.00 0.00 0.00 54 1024.1
20260503021716 60 192 2.6 6.1 0.00 0.00 0.00 55 1024.1
20260503021559 60 194 2.6 6.1 0.00 0.00 0.00 54 1013.6
20260503021041 60 188 2.6 6.1 0.00 0.00 0.00 54 1013.5
20260503021003 60 193 2.6 6.1 0.00 0.00 0.00 55 1024.2
20260503020542 60 196 2.6 6.1 0.00 0.00 0.00 55 1013.7
20260503020503 60 199 2.6 6.1 0.00 0.00 0.00 56 1024.3
20260503020053 60 198 1.7 5.2 0.00 0.00 0.00 55 1013.7
20260503020003 60 200 2.6 5.2 0.00 0.00 0.00 56 1024.3
20260503015542 60 202 1.7 5.2 0.00 0.00 0.00 56 1013.8
20260503015503 60 196 1.7 5.2 0.00 0.00 0.00 56 1024.3
20260503015044 60 192 0.9 4.3 0.00 0.00 0.00 56 1013.7
20260503015003 60 196 1.7 4.3 0.00 0.00 0.00 56 1024.4
20260503014552 60 0 0.9 4.3 0.00 0.00 0.00 56 1013.8
20260503014503 60 203 0.9 4.3 0.00 0.00 0.00 56 1024.4
20260503014044 60 205 0.0 3.5 0.00 0.00 0.00 55 1013.7
20260503014003 60 205 0.9 5.2 0.00 0.00 0.00 56 1024.4
20260503013546 60 0 0.0 5.2 0.00 0.00 0.00 56 1013.8
20260503013503 60 203 0.9 5.2 0.00 0.00 0.00 56 1024.4
20260503013049 60 205 0.9 5.2 0.00 0.00 0.00 55 1013.8
20260503013003 60 203 0.9 5.2 0.00 0.00 0.00 56 1024.4
20260503012549 60 202 0.9 5.2 0.00 0.00 0.00 56 1013.8
20260503012503 60 205 1.7 5.2 0.00 0.00 0.00 56 1024.3
20260503012040 60 205 1.7 4.3 0.00 0.00 0.00 56 1013.7
20260503012003 60 204 1.7 4.3 0.00 0.00 0.00 56 1024.4
20260503011603 60 205 1.7 4.3 0.00 0.00 0.00 56 1013.8
20260503011503 60 203 1.7 5.2 0.00 0.00 0.00 56 1024.3
20260503011044 60 203 0.9 5.2 0.00 0.00 0.00 55 1013.8
20260503011003 60 202 1.7 5.2 0.00 0.00 0.00 56 1024.5
20260503010541 60 0 0.9 5.2 0.00 0.00 0.00 55 1013.8
20260503010503 60 203 0.9 5.2 0.00 0.00 0.00 55 1024.4
20260503010217 60 205 0.9 5.2 0.00 0.00 0.00 55 1024.5
20260503010047 60 199 0.9 5.2 0.00 0.00 0.00 55 1013.8
20260503005541 60 210 0.9 2.6 0.00 0.00 0.00 55 1013.9
20260503005503 60 210 0.9 3.5 0.00 0.00 0.00 55 1024.5
20260503005042 60 0 0.0 3.5 0.00 0.00 0.00 54 1013.9
20260503005003 61 210 0.9 3.5 0.00 0.00 0.00 55 1024.5
20260503004550 60 210 0.9 3.5 0.00 0.00 0.00 54 1013.8
20260503004503 60 211 0.9 3.5 0.00 0.00 0.00 54 1024.5
20260503004041 60 0 0.9 3.5 0.00 0.00 0.00 54 1014.0
20260503004003 61 213 0.9 4.3 0.00 0.00 0.00 54 1024.6
20260503003718 61 213 0.9 4.3 0.00 0.00 0.00 54 1024.7
20260503003544 60 213 0.0 3.5 0.00 0.00 0.00 54 1014.0
20260503003054 60 213 0.0 4.3 0.00 0.00 0.00 54 1014.1
20260503003003 61 213 0.9 2.6 0.00 0.00 0.00 54 1024.6
20260503002543 60 0 0.9 4.3 0.00 0.00 0.00 54 1014.1
20260503002503 61 210 1.7 4.3 0.00 0.00 0.00 54 1024.7
20260503002041 60 213 1.7 4.3 0.00 0.00 0.00 53 1014.2
20260503002003 61 207 1.7 4.3 0.00 0.00 0.00 54 1024.8
20260503001603 60 205 1.7 4.3 0.00 0.00 0.00 54 1014.3
20260503001503 60 205 1.7 4.3 0.00 0.00 0.00 54 1024.9
20260503001048 60 206 0.9 4.3 0.00 0.00 0.00 54 1014.3
20260503001003 60 204 1.7 4.3 0.00 0.00 0.00 54 1024.8
20260503000547 60 207 1.7 4.3 0.00 0.00 0.00 54 1014.3
20260503000503 60 200 1.7 4.3 0.00 0.00 0.00 54 1024.9
20260503000106 60 0 1.7 4.3 0.00 0.00 0.00 54 1014.4
20260503000003 60 198 1.7 4.3 0.00 0.00 0.00 55 1025.0
20260502235546 60 198 0.9 4.3 0.00 0.00 0.00 55 1014.4
20260502235503 60 198 1.7 4.3 0.00 0.00 0.00 55 1025.1
20260502235048 59 0 1.7 4.3 0.00 0.00 0.00 55 1014.5
20260502235003 60 198 1.7 4.3 0.00 0.00 0.00 55 1025.2
20260502234614 59 198 0.9 2.6 0.00 0.00 0.00 55 1014.5
20260502234503 60 198 0.9 2.6 0.00 0.00 0.00 55 1025.0
20260502234048 59 198 0.0 2.6 0.00 0.00 0.00 54 1014.4
20260502234003 60 198 0.9 2.6 0.00 0.00 0.00 55 1025.0
20260502233546 59 198 0.9 2.6 0.00 0.00 0.00 54 1014.4
20260502233503 59 198 0.9 3.5 0.00 0.00 0.00 55 1025.0
20260502233109 59 198 0.9 2.6 0.00 0.00 0.00 55 1014.4
20260502233003 59 198 0.9 3.5 0.00 0.00 0.00 56 1024.9
20260502232547 58 198 0.0 3.5 0.00 0.00 0.00 56 1014.3
20260502232503 59 198 0.9 3.5 0.00 0.00 0.00 56 1024.9
20260502232046 58 0 0.9 3.5 0.00 0.00 0.00 56 1014.4
20260502232003 58 198 1.7 3.5 0.00 0.00 0.00 56 1025.0
20260502231717 58 198 1.7 3.5 0.00 0.00 0.00 57 1025.0
20260502231612 58 198 0.9 2.6 0.00 0.00 0.00 56 1014.5
20260502231218 58 198 0.9 3.5 0.00 0.00 0.00 57 1025.0
20260502231049 58 198 0.9 3.5 0.00 0.00 0.00 57 1014.5
20260502230546 57 198 0.0 3.5 0.00 0.00 0.00 57 1014.5
20260502230051 57 198 0.9 3.5 0.00 0.00 0.00 58 1014.5
20260502230003 58 198 1.7 3.5 0.00 0.00 0.00 58 1025.2
20260502225551 57 198 1.7 3.5 0.00 0.00 0.00 58 1014.6
20260502225503 57 198 0.9 3.5 0.00 0.00 0.00 59 1025.2
20260502225048 56 198 0.9 1.7 0.00 0.00 0.00 60 1014.6
20260502225003 57 198 0.0 1.7 0.00 0.00 0.00 60 1025.2
20260502224550 56 0 0.0 0.9 0.00 0.00 0.00 60 1014.6
20260502224503 57 198 0.0 0.9 0.00 0.00 0.00 60 1025.3
20260502224047 56 0 0.0 0.9 0.00 0.00 0.00 60 1014.7
20260502224003 57 198 0.0 0.9 0.00 0.00 0.00 60 1025.2
20260502223547 56 0 0.0 0.9 0.00 0.00 0.00 59 1014.6
20260502223503 57 198 0.0 0.9 0.00 0.00 0.00 60 1025.3
20260502223054 56 0 0.0 0.0 0.00 0.00 0.00 59 1014.6
20260502223003 57 0 0.0 0.0 0.00 0.00 0.00 60 1025.3
20260502222717 57 0 0.0 0.0 0.00 0.00 0.00 59 1025.3
20260502222548 57 0 0.0 0.0 0.00 0.00 0.00 59 1014.6
20260502222047 57 0 0.0 0.0 0.00 0.00 0.00 59 1014.5
20260502222003 57 0 0.0 0.0 0.00 0.00 0.00 59 1025.2
20260502221602 57 0 0.0 0.0 0.00 0.00 0.00 58 1014.7
20260502221503 57 0 0.0 0.0 0.00 0.00 0.00 58 1025.2
20260502221050 57 0 0.0 0.0 0.00 0.00 0.00 57 1014.7
20260502221003 57 0 0.0 0.0 0.00 0.00 0.00 58 1025.4
20260502220717 58 0 0.0 0.0 0.00 0.00 0.00 58 1025.4
20260502220548 57 0 0.0 0.0 0.00 0.00 0.00 58 1014.7
20260502220058 57 0 0.0 0.0 0.00 0.00 0.00 57 1014.7
20260502220003 58 0 0.0 0.0 0.00 0.00 0.00 57 1025.4
20260502215546 57 0 0.0 0.0 0.00 0.00 0.00 56 1014.7
20260502215503 58 0 0.0 0.0 0.00 0.00 0.00 57 1025.4
20260502215049 58 0 0.0 0.0 0.00 0.00 0.00 56 1014.7
20260502215003 58 0 0.0 0.0 0.00 0.00 0.00 57 1025.4
20260502214605 58 0 0.0 0.0 0.00 0.00 0.00 56 1014.8
20260502214503 58 0 0.0 0.0 0.00 0.00 0.00 56 1025.4
20260502214045 58 0 0.0 0.0 0.00 0.00 0.00 55 1014.7
20260502214003 58 0 0.0 0.0 0.00 0.00 0.00 55 1025.4
20260502213546 58 0 0.0 0.0 0.00 0.00 0.00 56 1014.7
20260502213503 58 0 0.0 0.0 0.00 0.00 0.00 55 1025.4
20260502213055 58 0 0.0 0.0 0.00 0.00 0.00 55 1014.7
20260502213003 58 0 0.0 0.0 0.00 0.00 0.00 55 1025.4
20260502212547 58 0 0.0 0.0 0.00 0.00 0.00 56 1014.8
20260502212503 59 0 0.0 0.0 0.00 0.00 0.00 55 1025.3
20260502212047 58 0 0.0 0.0 0.00 0.00 0.00 54 1014.7
20260502212003 59 0 0.0 0.0 0.00 0.00 0.00 55 1025.3
20260502211559 58 0 0.0 0.0 0.00 0.00 0.00 54 1014.7
20260502211503 59 0 0.0 0.0 0.00 0.00 0.00 54 1025.3
20260502211217 59 0 0.0 0.0 0.00 0.00 0.00 54 1025.3
20260502211051 59 0 0.0 0.0 0.00 0.00 0.00 54 1014.7
20260502210545 59 0 0.0 0.0 0.00 0.00 0.00 53 1014.8
20260502210503 59 0 0.0 0.0 0.00 0.00 0.00 54 1025.4
20260502210051 59 0 0.0 0.0 0.00 0.00 0.00 53 1014.8
20260502210003 60 0 0.0 0.0 0.00 0.00 0.00 53 1025.4
20260502205716 60 0 0.0 0.0 0.00 0.00 0.00 54 1025.4
20260502205542 59 0 0.0 0.0 0.00 0.00 0.00 53 1014.9
20260502205042 59 0 0.0 0.0 0.00 0.00 0.00 52 1014.9
20260502205003 60 0 0.0 0.9 0.00 0.00 0.00 52 1025.4
20260502204552 60 0 0.0 0.0 0.00 0.00 0.00 52 1014.9
20260502204503 60 0 0.0 0.9 0.00 0.00 0.00 52 1025.5
20260502204044 60 0 0.0 0.9 0.00 0.00 0.00 51 1014.9
20260502204003 60 198 0.0 0.9 0.00 0.00 0.00 52 1025.5
20260502203542 60 0 0.0 0.9 0.00 0.00 0.00 51 1014.7
20260502203503 61 198 0.0 0.9 0.00 0.00 0.00 52 1025.4
20260502203059 61 0 0.0 0.9 0.00 0.00 0.00 51 1014.8
20260502203003 61 198 0.0 0.9 0.00 0.00 0.00 51 1025.4
20260502202718 61 0 0.0 0.0 0.00 0.00 0.00 51 1025.4
20260502202541 61 0 0.0 0.0 0.00 0.00 0.00 51 1014.9
20260502202041 61 0 0.0 0.0 0.00 0.00 0.00 49 1014.9
20260502202003 62 0 0.0 0.0 0.00 0.00 0.00 50 1025.5
20260502201552 62 0 0.0 0.0 0.00 0.00 0.00 49 1014.9
20260502201503 63 0 0.0 2.6 0.00 0.00 0.00 49 1025.5
20260502201217 63 0 0.0 2.6 0.00 0.00 0.00 48 1025.5
20260502201044 63 0 0.0 2.6 0.00 0.00 0.00 48 1014.9
20260502200545 63 0 0.0 2.6 0.00 0.00 0.00 46 1014.8
20260502200503 64 198 0.0 2.6 0.00 0.00 0.00 46 1025.4
20260502200053 64 0 0.9 2.6 0.00 0.00 0.00 44 1014.8
20260502200003 64 198 0.9 2.6 0.00 0.00 0.00 45 1025.4
20260502195544 64 0 0.0 1.7 0.00 0.00 0.00 44 1014.7
20260502195503 64 198 0.0 2.6 0.00 0.00 0.00 44 1025.4
20260502195041 64 0 0.0 1.7 0.00 0.00 0.00 44 1014.7
20260502195003 65 198 0.0 2.6 0.00 0.00 0.00 44 1025.3
20260502194551 65 0 0.0 2.6 0.00 0.00 0.00 43 1014.7
20260502194503 65 198 0.9 2.6 0.00 0.00 0.00 44 1025.3
20260502194042 65 0 0.9 2.6 0.00 0.00 0.00 43 1014.6
20260502194003 65 198 0.9 2.6 0.00 0.00 0.00 43 1025.2
20260502193541 65 198 0.0 1.7 0.00 0.00 0.00 42 1014.5
20260502193503 66 198 0.0 1.7 0.00 0.00 0.00 42 1025.1
20260502193054 66 0 0.0 1.7 0.00 0.00 0.00 42 1014.5
20260502193003 66 198 0.0 3.5 0.00 0.00 0.00 42 1025.1
20260502192718 66 198 0.0 3.5 0.00 0.00 0.00 41 1025.2
20260502192542 66 0 0.0 2.6 0.00 0.00 0.00 41 1014.5
20260502192041 66 0 0.0 3.5 0.00 0.00 0.00 40 1014.5
20260502192003 67 198 0.9 4.3 0.00 0.00 0.00 40 1025.1
20260502191554 67 0 0.0 3.5 0.00 0.00 0.00 40 1014.4
20260502191503 67 198 0.9 4.3 0.00 0.00 0.00 40 1025.0
20260502191042 67 198 0.9 4.3 0.00 0.00 0.00 39 1014.4
20260502191003 67 197 1.7 3.5 0.00 0.00 0.00 40 1024.9
20260502190542 67 198 0.9 4.3 0.00 0.00 0.00 39 1014.3
20260502190503 68 198 1.7 5.2 0.00 0.00 0.00 40 1024.9
20260502190054 67 197 0.9 5.2 0.00 0.00 0.00 39 1014.2
20260502190004 68 200 0.9 5.2 0.00 0.00 0.00 40 1025.0
20260502185541 68 0 0.0 5.2 0.00 0.00 0.00 39 1014.2
20260502185503 68 198 0.9 5.2 0.00 0.00 0.00 39 1024.9
20260502185041 68 200 0.9 5.2 0.00 0.00 0.00 38 1014.2
20260502185003 69 195 1.7 5.2 0.00 0.00 0.00 39 1024.9
20260502184553 69 194 0.9 5.2 0.00 0.00 0.00 38 1014.3
20260502184503 69 193 1.7 5.2 0.00 0.00 0.00 39 1024.9
20260502184044 69 194 0.9 5.2 0.00 0.00 0.00 38 1014.3
20260502184003 69 191 1.7 5.2 0.00 0.00 0.00 38 1024.8
20260502183544 69 192 1.7 5.2 0.00 0.00 0.00 37 1014.2
20260502183503 70 191 1.7 5.2 0.00 0.00 0.00 38 1024.8
20260502183052 70 190 0.9 4.3 0.00 0.00 0.00 37 1014.2
20260502183003 70 193 1.7 4.3 0.00 0.00 0.00 38 1024.8
20260502182541 70 194 0.9 4.3 0.00 0.00 0.00 37 1014.2
20260502182503 70 194 1.7 4.3 0.00 0.00 0.00 37 1024.8
20260502182044 70 194 0.9 3.5 0.00 0.00 0.00 37 1014.2
20260502182003 71 194 0.9 4.3 0.00 0.00 0.00 37 1024.8
20260502181717 71 194 1.7 5.2 0.00 0.00 0.00 37 1024.8
20260502181551 70 0 0.9 4.3 0.00 0.00 0.00 37 1014.2
20260502181042 71 194 0.9 5.2 0.00 0.00 0.00 36 1014.3
20260502181003 71 195 1.7 5.2 0.00 0.00 0.00 36 1024.9
20260502180717 72 195 1.7 5.2 0.00 0.00 0.00 37 1024.9
20260502180550 71 192 0.9 5.2 0.00 0.00 0.00 36 1014.3
20260502164047 75 187 6.1 11.3 0.00 0.00 0.00 29 1014.6
20260502164003 76 188 6.1 11.3 0.00 0.00 0.00 30 1025.3
20260502163547 75 158 5.2 12.2 0.00 0.00 0.00 29 1014.6
20260502163503 76 186 6.1 16.5 0.00 0.00 0.00 29 1025.3
20260502163217 76 187 6.1 16.5 0.00 0.00 0.00 28 1025.3
20260502163055 75 191 5.2 15.6 0.00 0.00 0.00 29 1014.7
20260502162549 75 184 6.1 16.5 0.00 0.00 0.00 27 1014.7
20260502162503 76 191 7.0 16.5 0.00 0.00 0.00 28 1025.3
20260502162046 76 192 6.1 16.5 0.00 0.00 0.00 26 1014.9
20260502162003 76 190 7.0 16.5 0.00 0.00 0.00 26 1025.4
20260502161558 76 188 5.2 14.8 0.00 0.00 0.00 25 1014.9
20260502161503 77 193 6.1 14.8 0.00 0.00 0.00 26 1025.5
20260502161045 76 201 7.0 13.0 0.00 0.00 0.00 26 1015.0
20260502161003 77 198 6.1 13.0 0.00 0.00 0.00 26 1025.5
20260502160545 77 196 6.1 12.2 0.00 0.00 0.00 28 1015.0
20260502160503 77 199 6.1 12.2 0.00 0.00 0.00 27 1025.5
20260502152217 77 190 6.1 13.0 0.00 0.00 0.00 26 1025.8
20260502152046 77 191 6.1 13.0 0.00 0.00 0.00 25 1015.2
20260502151559 77 177 5.2 12.2 0.00 0.00 0.00 23 1015.3
20260502151503 77 189 6.1 12.2 0.00 0.00 0.00 24 1025.9
20260502151217 77 189 7.0 15.6 0.00 0.00 0.00 25 1026.0
20260502151050 77 159 6.1 15.6 0.00 0.00 0.00 24 1015.4
20260502150548 77 167 7.8 15.6 0.00 0.00 0.00 24 1015.4
20260502150503 77 191 6.1 15.6 0.00 0.00 0.00 25 1026.1
20260502150109 77 167 4.3 10.4 0.00 0.00 0.00 26 1015.5
20260502130542 78 173 5.2 10.4 0.00 0.00 0.00 32 1017.2
20260502130503 78 189 5.2 12.2 0.00 0.00 0.00 33 1027.8
20260502123717 77 204 6.1 13.9 0.00 0.00 0.00 36 1028.1
20260502123544 76 208 6.1 13.9 0.00 0.00 0.00 34 1017.4
20260502123218 77 203 6.1 13.9 0.00 0.00 0.00 34 1028.1
20260502123051 77 169 6.1 13.9 0.00 0.00 0.00 34 1017.5
20260502122717 77 194 5.2 13.9 0.00 0.00 0.00 37 1028.1
20260502122544 76 208 4.3 13.9 0.00 0.00 0.00 37 1017.5
20260502122044 76 207 3.5 16.5 0.00 0.00 0.00 39 1017.6
20260502122003 76 187 6.1 16.5 0.00 0.00 0.00 40 1028.2
20260502121553 75 159 6.1 16.5 0.00 0.00 0.00 39 1017.7
20260502121503 76 187 6.1 16.5 0.00 0.00 0.00 39 1028.3
20260502121044 76 160 5.2 13.9 0.00 0.00 0.00 40 1017.7
20260502121003 76 191 6.1 13.9 0.00 0.00 0.00 39 1028.4
20260502120542 75 226 7.0 13.9 0.00 0.00 0.00 39 1017.8
20260502120503 76 194 6.1 13.9 0.00 0.00 0.00 40 1028.4
20260502120113 76 245 6.1 13.0 0.00 0.00 0.00 39 1017.8
20260502115542 75 208 4.3 13.9 0.00 0.00 0.00 41 1017.9
20260502115503 75 201 5.2 20.0 0.00 0.00 0.00 41 1028.4
20260502115042 75 220 5.2 13.9 0.00 0.00 0.00 41 1017.9
20260502115003 75 203 6.1 20.0 0.00 0.00 0.00 41 1028.5
20260502114600 75 192 6.1 20.0 0.00 0.00 0.00 41 1018.0
20260502114503 75 197 7.0 20.0 0.00 0.00 0.00 42 1028.7
20260502114218 75 194 7.0 20.0 0.00 0.00 0.00 42 1028.7
20260502114041 75 176 6.1 20.0 0.00 0.00 0.00 41 1018.1
20260502113717 75 194 7.0 20.0 0.00 0.00 0.00 41 1028.8
20260502113542 75 188 6.1 15.6 0.00 0.00 0.00 40 1018.1
20260502113053 75 251 4.3 13.0 0.00 0.00 0.00 43 1018.1
20260502113003 75 189 6.1 13.0 0.00 0.00 0.00 44 1028.7
20260502112541 75 193 7.0 13.0 0.00 0.00 0.00 42 1018.2
20260502112503 75 191 6.1 13.0 0.00 0.00 0.00 44 1028.9
20260502112218 75 198 6.1 13.0 0.00 0.00 0.00 44 1028.9
20260502112041 75 194 4.3 13.0 0.00 0.00 0.00 44 1018.3
20260502111559 74 201 5.2 12.2 0.00 0.00 0.00 43 1018.3
20260502111503 75 203 6.1 12.2 0.00 0.00 0.00 44 1028.9
20260502111042 75 179 5.2 12.2 0.00 0.00 0.00 43 1018.3
20260502111003 75 200 5.2 12.2 0.00 0.00 0.00 44 1028.9
20260502110543 74 185 4.3 12.2 0.00 0.00 0.00 43 1018.4
20260502110503 75 195 6.1 13.0 0.00 0.00 0.00 44 1028.9
20260502110053 74 176 5.2 13.0 0.00 0.00 0.00 46 1018.4
20260502110003 74 193 6.1 13.0 0.00 0.00 0.00 46 1029.1
20260502105542 74 226 6.1 13.0 0.00 0.00 0.00 43 1018.5
20260502105503 74 196 6.1 13.0 0.00 0.00 0.00 44 1029.1
20260502105217 74 194 6.1 13.0 0.00 0.00 0.00 43 1029.0
20260502105043 74 162 6.1 13.0 0.00 0.00 0.00 42 1018.5
20260502104554 74 189 5.2 11.3 0.00 0.00 0.00 43 1018.4
20260502104503 74 191 5.2 11.3 0.00 0.00 0.00 46 1029.1
20260502104043 74 186 5.2 11.3 0.00 0.00 0.00 45 1018.5
20260502104003 74 196 5.2 13.9 0.00 0.00 0.00 46 1029.1
20260502103542 73 237 5.2 10.4 0.00 0.00 0.00 45 1018.5
20260502103503 74 201 5.2 13.9 0.00 0.00 0.00 45 1029.1
20260502103053 73 217 3.5 13.9 0.00 0.00 0.00 46 1018.6
20260502103003 73 199 6.1 13.9 0.00 0.00 0.00 47 1029.3
20260502102542 73 188 7.0 13.9 0.00 0.00 0.00 45 1018.8
20260502102503 73 192 7.0 13.9 0.00 0.00 0.00 46 1029.3
20260502102042 73 193 6.1 13.9 0.00 0.00 0.00 46 1018.8
20260502102003 73 192 6.1 13.0 0.00 0.00 0.00 46 1029.4
20260502101550 73 194 5.2 12.2 0.00 0.00 0.00 47 1018.8
20260502101043 73 175 5.2 14.8 0.00 0.00 0.00 47 1018.9
20260502101003 73 191 5.2 14.8 0.00 0.00 0.00 48 1029.5
20260502100716 73 195 5.2 14.8 0.00 0.00 0.00 48 1029.7
20260502100541 73 232 4.3 14.8 0.00 0.00 0.00 48 1018.9
20260502100115 72 0 5.2 14.8 0.00 0.00 0.00 47 1019.1
20260502091503 70 191 4.3 12.2 0.00 0.00 0.00 50 1030.0
20260502091217 70 190 4.3 10.4 0.00 0.00 0.00 54 1030.1
20260502091042 69 173 3.5 10.4 0.00 0.00 0.00 53 1019.3
20260502090542 69 201 5.2 10.4 0.00 0.00 0.00 51 1019.4
20260502090503 69 193 4.3 10.4 0.00 0.00 0.00 52 1030.0
20260502090217 69 192 4.3 12.2 0.00 0.00 0.00 53 1030.0
20260502071045 60 101 0.9 3.5 0.00 0.00 0.00 69 1020.0
20260502071003 60 75 0.9 3.5 0.00 0.00 0.00 69 1030.7
20260502070546 59 0 0.0 2.6 0.00 0.00 0.00 69 1020.0
20260502070503 59 61 0.0 2.6 0.00 0.00 0.00 70 1030.7
20260502070057 58 0 0.0 0.0 0.00 0.00 0.00 72 1020.1
20260502070003 58 0 0.0 0.0 0.00 0.00 0.00 72 1030.7
20260502065547 57 0 0.0 0.0 0.00 0.00 0.00 74 1020.1
20260502065503 58 0 0.0 0.0 0.00 0.00 0.00 75 1030.8
20260502065218 57 0 0.0 0.0 0.00 0.00 0.00 76 1030.8
20260502065045 56 0 0.0 0.0 0.00 0.00 0.00 76 1020.1
20260502064607 55 0 0.0 0.0 0.00 0.00 0.00 77 1020.2
20260502064503 56 0 0.0 0.0 0.00 0.00 0.00 78 1030.9
20260502064048 54 0 0.0 0.0 0.00 0.00 0.00 79 1020.2
20260502064003 55 0 0.0 0.0 0.00 0.00 0.00 80 1030.9
20260502063548 54 0 0.0 0.0 0.00 0.00 0.00 80 1020.2
20260502063503 54 0 0.0 0.0 0.00 0.00 0.00 80 1031.0
20260502063052 53 0 0.0 0.0 0.00 0.00 0.00 80 1020.2
20260502063003 53 0 0.0 0.0 0.00 0.00 0.00 80 1030.9
20260502062548 52 0 0.0 0.0 0.00 0.00 0.00 80 1020.2
20260502062503 53 0 0.0 0.0 0.00 0.00 0.00 80 1030.9
20260502062048 52 0 0.0 0.0 0.00 0.00 0.00 79 1020.2
20260502062003 52 0 0.0 0.0 0.00 0.00 0.00 80 1030.9
20260502061552 52 0 0.0 0.0 0.00 0.00 0.00 79 1020.1
20260502061046 52 0 0.0 0.0 0.00 0.00 0.00 79 1020.2
20260502061003 52 0 0.0 0.0 0.00 0.00 0.00 80 1030.9
20260502060547 51 0 0.0 0.0 0.00 0.00 0.00 80 1020.3
20260502060503 52 0 0.0 0.0 0.00 0.00 0.00 81 1030.9
20260502060058 51 0 0.0 0.0 0.00 0.00 0.00 82 1020.3
20260502060003 51 0 0.0 0.0 0.00 0.00 0.00 83 1031.0
20260502055550 50 0 0.0 0.0 0.00 0.00 0.00 84 1020.3
20260502055503 50 0 0.0 0.0 0.00 0.00 0.00 85 1031.0
20260502055046 49 0 0.0 0.0 0.00 0.00 0.00 85 1020.2
20260502055003 49 0 0.0 0.0 0.00 0.00 0.00 86 1030.9
20260502054552 48 0 0.0 0.0 0.00 0.00 0.00 86 1020.3
20260502054503 48 0 0.0 0.0 0.00 0.00 0.00 86 1030.9
20260502054048 47 0 0.0 0.0 0.00 0.00 0.00 85 1020.2
20260502054003 48 0 0.0 0.0 0.00 0.00 0.00 85 1030.9
20260502053541 47 0 0.0 0.0 0.00 0.00 0.00 85 1020.3
20260502053503 48 0 0.0 0.0 0.00 0.00 0.00 86 1030.9
20260502053057 47 0 0.0 0.0 0.00 0.00 0.00 85 1020.3
20260502053003 48 0 0.0 0.0 0.00 0.00 0.00 86 1031.0
20260502052543 47 0 0.0 0.0 0.00 0.00 0.00 85 1020.3
20260502052503 48 0 0.0 0.0 0.00 0.00 0.00 86 1030.9
20260502052044 47 0 0.0 0.0 0.00 0.00 0.00 85 1020.3
20260502052003 48 0 0.0 0.0 0.00 0.00 0.00 85 1030.9
20260502051716 48 0 0.0 0.0 0.00 0.00 0.00 85 1030.9
20260502051643 47 0 0.0 0.0 0.00 0.00 0.00 85 1020.3
20260502051044 47 0 0.0 0.0 0.00 0.00 0.00 85 1020.2
20260502051003 48 0 0.0 0.0 0.00 0.00 0.00 85 1030.9
20260502050542 47 0 0.0 0.0 0.00 0.00 0.00 85 1020.2
20260502050503 48 0 0.0 0.0 0.00 0.00 0.00 86 1030.8
20260502050059 47 0 0.0 0.0 0.00 0.00 0.00 85 1020.1
20260502050003 47 0 0.0 0.0 0.00 0.00 0.00 86 1030.8
20260502045542 47 0 0.0 0.0 0.00 0.00 0.00 86 1020.2
20260502045503 47 0 0.0 0.0 0.00 0.00 0.00 86 1030.7
20260502045042 46 0 0.0 0.0 0.00 0.00 0.00 86 1020.1
20260502045003 47 0 0.0 0.0 0.00 0.00 0.00 86 1030.8
20260502044605 46 0 0.0 0.0 0.00 0.00 0.00 86 1020.1
20260502044504 46 0 0.0 0.0 0.00 0.00 0.00 86 1030.8
20260502044217 46 0 0.0 0.0 0.00 0.00 0.00 86 1030.7
20260502044042 46 0 0.0 0.0 0.00 0.00 0.00 86 1020.1
20260502043542 46 0 0.0 0.0 0.00 0.00 0.00 86 1020.1
20260502043503 46 0 0.0 0.0 0.00 0.00 0.00 86 1030.7
20260502043217 46 0 0.0 0.0 0.00 0.00 0.00 86 1030.7
20260502043058 45 0 0.0 0.0 0.00 0.00 0.00 85 1020.0
20260502042542 45 0 0.0 0.0 0.00 0.00 0.00 85 1020.1
20260502042503 46 0 0.0 0.0 0.00 0.00 0.00 86 1030.7
20260502042042 45 0 0.0 0.0 0.00 0.00 0.00 85 1020.1
20260502042003 46 0 0.0 0.0 0.00 0.00 0.00 85 1030.7
20260502041556 45 0 0.0 0.0 0.00 0.00 0.00 85 1020.1
20260502041503 46 0 0.0 0.0 0.00 0.00 0.00 85 1030.8
20260502041042 45 0 0.0 0.0 0.00 0.00 0.00 84 1020.0
20260502041003 46 0 0.0 0.0 0.00 0.00 0.00 85 1030.7
20260502040718 46 0 0.0 0.0 0.00 0.00 0.00 85 1030.7
20260502040544 46 0 0.0 0.0 0.00 0.00 0.00 84 1020.0
20260502040047 46 0 0.0 0.0 0.00 0.00 0.00 84 1020.0
20260502040003 46 0 0.0 0.0 0.00 0.00 0.00 85 1030.7
20260502035544 46 0 0.0 0.0 0.00 0.00 0.00 84 1020.0
20260502035503 46 0 0.0 0.0 0.00 0.00 0.00 85 1030.6
20260502035045 46 0 0.0 0.0 0.00 0.00 0.00 84 1020.0
20260502035003 46 0 0.0 0.0 0.00 0.00 0.00 85 1030.6
20260502034552 46 0 0.0 0.0 0.00 0.00 0.00 84 1020.0
20260502034503 46 0 0.0 0.0 0.00 0.00 0.00 85 1030.7
20260502034045 46 0 0.0 0.0 0.00 0.00 0.00 84 1020.0
20260502034003 46 0 0.0 0.0 0.00 0.00 0.00 85 1030.6
20260502033542 46 0 0.0 0.0 0.00 0.00 0.00 84 1020.0
20260502033503 46 0 0.0 0.0 0.00 0.00 0.00 85 1030.6
20260502033057 46 0 0.0 0.0 0.00 0.00 0.00 84 1020.0
20260502033003 46 0 0.0 0.0 0.00 0.00 0.00 84 1030.6
20260502032544 46 0 0.0 0.0 0.00 0.00 0.00 84 1020.0
20260502032503 46 0 0.0 0.0 0.00 0.00 0.00 84 1030.7
20260502032042 46 0 0.0 0.0 0.00 0.00 0.00 84 1020.0
20260502032003 46 0 0.0 0.0 0.00 0.00 0.00 84 1030.6
20260502031610 46 0 0.0 0.0 0.00 0.00 0.00 84 1020.0
20260502031503 46 0 0.0 0.0 0.00 0.00 0.00 84 1030.6
20260502031041 46 0 0.0 0.0 0.00 0.00 0.00 84 1020.0
20260502031003 46 0 0.0 0.0 0.00 0.00 0.00 84 1030.7
20260502030541 46 0 0.0 0.0 0.00 0.00 0.00 84 1020.0
20260502030503 46 0 0.0 0.0 0.00 0.00 0.00 84 1030.6
20260502030054 46 0 0.0 0.0 0.00 0.00 0.00 83 1020.0
20260502030003 46 0 0.0 0.0 0.00 0.00 0.00 84 1030.7
20260502025541 46 0 0.0 0.0 0.00 0.00 0.00 82 1020.0
20260502025503 47 0 0.0 0.0 0.00 0.00 0.00 83 1030.7
20260502025042 46 0 0.0 0.0 0.00 0.00 0.00 82 1020.1
20260502025003 47 0 0.0 0.0 0.00 0.00 0.00 83 1030.7
20260502024557 46 0 0.0 0.0 0.00 0.00 0.00 82 1020.0
20260502024503 47 0 0.0 0.0 0.00 0.00 0.00 82 1030.7
20260502024042 47 0 0.0 0.0 0.00 0.00 0.00 81 1020.0
20260502024003 47 0 0.0 0.0 0.00 0.00 0.00 82 1030.7
20260502023541 47 0 0.0 0.0 0.00 0.00 0.00 81 1020.1
20260502023503 47 0 0.0 0.0 0.00 0.00 0.00 82 1030.8
20260502023051 47 0 0.0 0.0 0.00 0.00 0.00 81 1020.1
20260502023003 47 0 0.0 0.0 0.00 0.00 0.00 82 1030.7
20260502022544 47 0 0.0 0.0 0.00 0.00 0.00 81 1020.1
20260502022503 47 0 0.0 0.0 0.00 0.00 0.00 82 1030.7